| time (UTC) | temp F | wind direction | speed knots | gust knots | rain 1hr in | rain 24hr in | rain mn in | humidity % | barometer mb |
| 20260507151515 | 58 | 315 | 1.7 | 6.1 | 0.00 | 0.01 | 0.00 | 34 | 1009.4 |
| 20260507150515 | 58 | 315 | 1.7 | 5.2 | 0.00 | 0.01 | 0.00 | 35 | 1009.8 |
| 20260507145515 | 57 | 315 | 1.7 | 5.2 | 0.00 | 0.01 | 0.00 | 34 | 1009.9 |
| 20260507144515 | 57 | 315 | 1.7 | 6.1 | 0.00 | 0.01 | 0.00 | 39 | 1009.9 |
| 20260507143515 | 57 | 315 | 0.9 | 4.3 | 0.00 | 0.01 | 0.00 | 38 | 1009.9 |
| 20260507142515 | 57 | 315 | 2.6 | 5.2 | 0.00 | 0.02 | 0.00 | 38 | 1010.0 |
| 20260507141517 | 56 | 315 | 0.9 | 4.3 | 0.00 | 0.04 | 0.00 | 38 | 1010.0 |
| 20260507140517 | 55 | 315 | 0.9 | 3.5 | 0.00 | 0.07 | 0.00 | 40 | 1010.4 |
| 20260507135517 | 55 | 315 | 1.7 | 4.3 | 0.00 | 0.10 | 0.00 | 38 | 1010.5 |
| 20260507134517 | 55 | 315 | 1.7 | 5.2 | 0.00 | 0.11 | 0.00 | 38 | 1010.5 |
| 20260507133517 | 55 | 315 | 1.7 | 6.1 | 0.00 | 0.11 | 0.00 | 38 | 1010.8 |
| 20260507132537 | 54 | 315 | 1.7 | 5.2 | 0.00 | 0.14 | 0.00 | 39 | 1010.7 |
| 20260507131517 | 54 | 315 | 1.7 | 5.2 | 0.00 | 0.15 | 0.00 | 40 | 1010.7 |
| 20260507130517 | 53 | 315 | 1.7 | 4.3 | 0.00 | 0.15 | 0.00 | 43 | 1010.8 |
| 20260507125517 | 53 | 315 | 0.9 | 5.2 | 0.00 | 0.17 | 0.00 | 46 | 1010.7 |
| 20260507124517 | 53 | 315 | 1.7 | 4.3 | 0.00 | 0.18 | 0.00 | 45 | 1010.7 |
| 20260507123537 | 53 | 315 | 0.9 | 6.1 | 0.00 | 0.18 | 0.00 | 51 | 1010.5 |
| 20260507122537 | 52 | 315 | 1.7 | 5.2 | 0.00 | 0.18 | 0.00 | 51 | 1010.4 |
| 20260507121517 | 52 | 315 | 0.9 | 2.6 | 0.00 | 0.18 | 0.00 | 54 | 1010.4 |
| 20260507121017 | 51 | 0.0 | 0.9 | 0.00 | 0.18 | 0.00 | 56 | 1010.4 | |
| 20260507120017 | 51 | 0.0 | 1.7 | 0.00 | 0.19 | 0.00 | 55 | 1010.5 | |
| 20260507115017 | 51 | 315 | 0.9 | 3.5 | 0.00 | 0.19 | 0.00 | 53 | 1010.5 |
| 20260507114017 | 51 | 315 | 0.9 | 2.6 | 0.00 | 0.19 | 0.00 | 54 | 1010.5 |
| 20260507113037 | 51 | 0.0 | 0.9 | 0.00 | 0.20 | 0.00 | 58 | 1010.5 | |
| 20260507112017 | 51 | 0.0 | 0.9 | 0.00 | 0.20 | 0.00 | 56 | 1010.5 | |
| 20260507111037 | 51 | 315 | 0.9 | 1.7 | 0.00 | 0.20 | 0.00 | 55 | 1010.3 |
| 20260507110017 | 51 | 315 | 0.9 | 2.6 | 0.00 | 0.21 | 0.00 | 54 | 1010.0 |
| 20260507105017 | 51 | 0.0 | 0.9 | 0.00 | 0.23 | 0.00 | 56 | 1010.0 | |
| 20260507104017 | 51 | 0.0 | 1.7 | 0.00 | 0.23 | 0.00 | 56 | 1009.9 | |
| 20260507103017 | 51 | 0.0 | 0.9 | 0.00 | 0.23 | 0.00 | 56 | 1009.5 | |
| 20260507102016 | 51 | 0.0 | 1.7 | 0.00 | 0.23 | 0.00 | 56 | 1009.5 | |
| 20260507101037 | 51 | 0.0 | 2.6 | 0.00 | 0.23 | 0.00 | 54 | 1009.4 | |
| 20260507100017 | 52 | 0.0 | 0.0 | 0.00 | 0.23 | 0.00 | 56 | 1009.4 | |
| 20260507095017 | 52 | 0.0 | 0.9 | 0.00 | 0.23 | 0.00 | 55 | 1009.4 | |
| 20260507094017 | 52 | 0.0 | 0.9 | 0.00 | 0.23 | 0.00 | 53 | 1009.4 | |
| 20260507093017 | 52 | 0.0 | 2.6 | 0.00 | 0.23 | 0.00 | 54 | 1009.5 | |
| 20260507092017 | 52 | 0.0 | 0.9 | 0.00 | 0.23 | 0.00 | 51 | 1009.5 | |
| 20260507091017 | 52 | 0.0 | 2.6 | 0.00 | 0.23 | 0.00 | 49 | 1009.4 | |
| 20260507090017 | 52 | 0.0 | 2.6 | 0.00 | 0.23 | 0.00 | 50 | 1009.2 | |
| 20260507085016 | 52 | 315 | 0.9 | 1.7 | 0.00 | 0.23 | 0.00 | 52 | 1009.2 |
| 20260507084037 | 52 | 0.0 | 2.6 | 0.00 | 0.23 | 0.00 | 52 | 1009.0 | |
| 20260507083016 | 52 | 315 | 0.9 | 4.3 | 0.00 | 0.23 | 0.00 | 53 | 1009.1 |
| 20260507082036 | 52 | 315 | 0.9 | 4.3 | 0.00 | 0.23 | 0.00 | 53 | 1009.1 |
| 20260507080539 | 53 | 315 | 1.7 | 4.3 | 0.00 | 0.23 | 0.00 | 55 | 1008.8 |
| 20260507075537 | 53 | 315 | 0.9 | 2.6 | 0.00 | 0.23 | 0.00 | 58 | 1008.8 |
| 20260507074516 | 53 | 315 | 0.9 | 4.3 | 0.00 | 0.23 | 0.00 | 59 | 1008.8 |
| 20260507073536 | 53 | 0.0 | 3.5 | 0.00 | 0.23 | 0.00 | 59 | 1008.8 | |
| 20260507072516 | 53 | 315 | 0.9 | 3.5 | 0.00 | 0.23 | 0.00 | 60 | 1008.8 |
| 20260507071536 | 53 | 315 | 0.9 | 3.5 | 0.00 | 0.23 | 0.00 | 63 | 1008.8 |
| 20260507070516 | 53 | 315 | 0.9 | 4.3 | 0.00 | 0.23 | 0.00 | 65 | 1009.0 |
| 20260507065536 | 53 | 0.0 | 2.6 | 0.00 | 0.23 | 0.00 | 68 | 1009.1 | |
| 20260507064536 | 54 | 315 | 0.9 | 4.3 | 0.00 | 0.23 | 0.00 | 69 | 1009.1 |
| 20260507063516 | 54 | 315 | 0.9 | 3.5 | 0.00 | 0.23 | 0.00 | 70 | 1008.9 |
| 20260507062516 | 54 | 315 | 0.9 | 3.5 | 0.00 | 0.23 | 0.00 | 70 | 1009.2 |
| 20260507061516 | 54 | 315 | 0.9 | 4.3 | 0.00 | 0.23 | 0.00 | 70 | 1009.2 |
| 20260507060516 | 54 | 0.0 | 1.7 | 0.00 | 0.23 | 0.00 | 70 | 1009.2 | |
| 20260507055517 | 55 | 315 | 0.9 | 3.5 | 0.00 | 0.23 | 0.00 | 69 | 1008.8 |
| 20260507054516 | 55 | 0.0 | 1.7 | 0.00 | 0.23 | 0.00 | 71 | 1008.8 | |
| 20260507053516 | 55 | 315 | 0.9 | 2.6 | 0.00 | 0.23 | 0.00 | 72 | 1008.8 |
| 20260507052516 | 55 | 315 | 0.9 | 3.5 | 0.00 | 0.23 | 0.00 | 72 | 1008.8 |
| 20260507051517 | 55 | 315 | 0.9 | 3.5 | 0.00 | 0.23 | 0.00 | 72 | 1008.8 |
| 20260507050536 | 55 | 315 | 0.9 | 6.1 | 0.00 | 0.23 | 0.00 | 72 | 1008.7 |
| 20260507045516 | 55 | 315 | 0.9 | 3.5 | 0.00 | 0.23 | 0.00 | 72 | 1008.8 |
| 20260507044516 | 55 | 315 | 0.9 | 5.2 | 0.00 | 0.23 | 0.00 | 71 | 1008.8 |
| 20260507043516 | 55 | 315 | 1.7 | 5.2 | 0.00 | 0.23 | 0.00 | 70 | 1008.8 |
| 20260507042516 | 55 | 315 | 0.9 | 3.5 | 0.00 | 0.23 | 0.00 | 71 | 1008.9 |
| 20260507041516 | 55 | 315 | 0.9 | 4.3 | 0.00 | 0.23 | 0.00 | 71 | 1008.9 |
| 20260507040536 | 55 | 315 | 0.9 | 3.5 | 0.00 | 0.23 | 0.00 | 73 | 1008.9 |
| 20260507035516 | 55 | 0.0 | 2.6 | 0.00 | 0.23 | 0.23 | 73 | 1008.9 | |
| 20260507034536 | 55 | 315 | 0.9 | 5.2 | 0.00 | 0.23 | 0.23 | 73 | 1008.9 |
| 20260507033516 | 55 | 315 | 0.9 | 3.5 | 0.00 | 0.23 | 0.23 | 74 | 1008.3 |
| 20260507032516 | 56 | 315 | 0.9 | 3.5 | 0.00 | 0.23 | 0.23 | 75 | 1008.9 |
| 20260507031536 | 56 | 315 | 0.9 | 3.5 | 0.00 | 0.23 | 0.23 | 76 | 1008.9 |
| 20260507030516 | 56 | 315 | 0.9 | 5.2 | 0.00 | 0.23 | 0.23 | 78 | 1008.8 |
| 20260507025516 | 56 | 0.0 | 4.3 | 0.00 | 0.23 | 0.23 | 79 | 1008.8 | |
| 20260507024516 | 56 | 315 | 0.9 | 3.5 | 0.00 | 0.23 | 0.23 | 79 | 1008.8 |
| 20260507023516 | 56 | 315 | 2.6 | 8.7 | 0.00 | 0.23 | 0.23 | 79 | 1008.3 |
| 20260507022516 | 56 | 315 | 1.7 | 6.1 | 0.00 | 0.23 | 0.23 | 81 | 1008.3 |
| 20260507021516 | 57 | 315 | 1.7 | 5.2 | 0.00 | 0.23 | 0.23 | 80 | 1008.3 |
| 20260507020516 | 57 | 315 | 1.7 | 6.1 | 0.00 | 0.23 | 0.23 | 80 | 1008.4 |
| 20260507015516 | 57 | 293 | 3.5 | 8.7 | 0.00 | 0.23 | 0.23 | 79 | 1008.0 |
| 20260507014516 | 57 | 315 | 2.6 | 8.7 | 0.00 | 0.23 | 0.23 | 79 | 1008.0 |
| 20260507013516 | 57 | 338 | 2.6 | 7.8 | 0.00 | 0.23 | 0.23 | 78 | 1008.3 |
| 20260507012516 | 58 | 338 | 1.7 | 4.3 | 0.00 | 0.23 | 0.23 | 79 | 1008.5 |
| 20260507011516 | 58 | 338 | 1.7 | 4.3 | 0.00 | 0.23 | 0.23 | 77 | 1008.5 |
| 20260507010516 | 58 | 0.0 | 1.7 | 0.00 | 0.23 | 0.23 | 78 | 1008.4 | |
| 20260507005516 | 58 | 338 | 0.9 | 4.3 | 0.00 | 0.23 | 0.23 | 77 | 1008.5 |
| 20260507004516 | 59 | 338 | 1.7 | 5.2 | 0.00 | 0.23 | 0.23 | 76 | 1008.5 |
| 20260507003516 | 59 | 338 | 1.7 | 8.7 | 0.00 | 0.23 | 0.23 | 77 | 1008.3 |
| 20260507002516 | 60 | 315 | 0.9 | 5.2 | 0.00 | 0.23 | 0.23 | 76 | 1007.8 |
| 20260507001516 | 60 | 315 | 1.7 | 8.7 | 0.00 | 0.23 | 0.23 | 75 | 1007.8 |
| 20260507000516 | 60 | 338 | 0.9 | 4.3 | 0.00 | 0.23 | 0.23 | 75 | 1007.6 |
| 20260506235516 | 60 | 293 | 1.7 | 8.7 | 0.00 | 0.23 | 0.23 | 75 | 1007.4 |
| 20260506234516 | 61 | 270 | 0.9 | 5.2 | 0.00 | 0.23 | 0.23 | 74 | 1007.4 |
| 20260506233536 | 61 | 270 | 1.7 | 6.1 | 0.00 | 0.23 | 0.23 | 74 | 1006.8 |
| 20260506232535 | 62 | 270 | 1.7 | 6.1 | 0.00 | 0.23 | 0.23 | 76 | 1006.7 |
| 20260506231536 | 62 | 270 | 1.7 | 4.3 | 0.00 | 0.23 | 0.23 | 76 | 1006.7 |
| 20260506230516 | 62 | 270 | 0.9 | 6.1 | 0.00 | 0.23 | 0.23 | 77 | 1006.7 |
| 20260506225516 | 62 | 270 | 1.7 | 4.3 | 0.00 | 0.23 | 0.23 | 80 | 1006.5 |
| 20260506224516 | 63 | 270 | 2.6 | 8.7 | 0.00 | 0.23 | 0.23 | 80 | 1006.5 |
| 20260506223516 | 63 | 248 | 1.7 | 5.2 | 0.00 | 0.23 | 0.23 | 82 | 1006.3 |
| 20260506222518 | 63 | 248 | 1.7 | 5.2 | 0.00 | 0.23 | 0.23 | 81 | 1006.2 |
| 20260506221515 | 64 | 248 | 0.9 | 2.6 | 0.00 | 0.23 | 0.23 | 85 | 1006.2 |
| 20260506220516 | 65 | 203 | 0.9 | 3.5 | 0.01 | 0.23 | 0.23 | 100 | 1005.7 |
| 20260506215515 | 65 | 0.0 | 0.9 | 0.01 | 0.23 | 0.23 | 100 | 1005.7 | |
| 20260506214516 | 65 | 0.0 | 0.0 | 0.01 | 0.23 | 0.23 | 100 | 1005.7 | |
| 20260506213515 | 65 | 0.0 | 0.9 | 0.01 | 0.23 | 0.23 | 100 | 1005.6 | |
| 20260506212515 | 66 | 0.0 | 1.7 | 0.01 | 0.23 | 0.23 | 100 | 1005.4 | |
| 20260506211515 | 66 | 0.0 | 1.7 | 0.01 | 0.23 | 0.23 | 94 | 1005.4 | |
| 20260506210515 | 66 | 0.0 | 1.7 | 0.00 | 0.22 | 0.22 | 91 | 1005.0 | |
| 20260506205517 | 67 | 0.0 | 1.7 | 0.00 | 0.22 | 0.22 | 89 | 1005.1 | |
| 20260506204517 | 67 | 0.0 | 0.9 | 0.00 | 0.22 | 0.22 | 87 | 1005.1 | |
| 20260506203517 | 68 | 0.0 | 2.6 | 0.00 | 0.22 | 0.22 | 83 | 1004.7 | |
| 20260506202517 | 69 | 203 | 0.9 | 3.5 | 0.00 | 0.22 | 0.22 | 80 | 1004.7 |
| 20260506201517 | 70 | 0.0 | 2.6 | 0.00 | 0.22 | 0.22 | 80 | 1004.7 | |
| 20260506200517 | 69 | 203 | 0.9 | 2.6 | 0.00 | 0.22 | 0.22 | 80 | 1004.7 |
| 20260506195517 | 69 | 225 | 0.9 | 4.3 | 0.00 | 0.22 | 0.22 | 82 | 1004.8 |
| 20260506194517 | 68 | 0.0 | 3.5 | 0.00 | 0.22 | 0.22 | 84 | 1004.7 | |
| 20260506193517 | 68 | 158 | 0.9 | 6.1 | 0.00 | 0.22 | 0.22 | 87 | 1004.8 |
| 20260506192517 | 67 | 158 | 0.9 | 6.1 | 0.00 | 0.22 | 0.22 | 87 | 1004.7 |
| 20260506191517 | 67 | 203 | 0.9 | 3.5 | 0.00 | 0.22 | 0.22 | 92 | 1004.7 |
| 20260506190517 | 66 | 203 | 0.9 | 4.3 | 0.00 | 0.22 | 0.22 | 94 | 1004.7 |
| 20260506185537 | 66 | 0.0 | 0.9 | 0.00 | 0.22 | 0.22 | 100 | 1005.1 | |
| 20260506184517 | 65 | 203 | 0.9 | 3.5 | 0.00 | 0.22 | 0.22 | 100 | 1005.1 |
| 20260506183517 | 65 | 203 | 0.9 | 5.2 | 0.00 | 0.22 | 0.22 | 100 | 1005.2 |
| 20260506182517 | 65 | 0.0 | 2.6 | 0.00 | 0.22 | 0.22 | 100 | 1005.2 | |
| 20260506181517 | 65 | 0.0 | 3.5 | 0.00 | 0.22 | 0.22 | 100 | 1005.2 | |
| 20260506180517 | 65 | 0.0 | 2.6 | 0.00 | 0.22 | 0.22 | 100 | 1005.2 | |
| 20260506175517 | 65 | 158 | 0.9 | 3.5 | 0.00 | 0.22 | 0.22 | 94 | 1005.2 |
| 20260506174517 | 66 | 158 | 0.9 | 3.5 | 0.00 | 0.22 | 0.22 | 90 | 1005.2 |
| 20260506173517 | 66 | 0.0 | 1.7 | 0.00 | 0.22 | 0.22 | 89 | 1005.1 | |
| 20260506172517 | 66 | 0.0 | 1.7 | 0.00 | 0.22 | 0.22 | 88 | 1005.1 | |
| 20260506171517 | 66 | 158 | 0.9 | 4.3 | 0.00 | 0.22 | 0.22 | 88 | 1005.0 |
| 20260506170517 | 65 | 158 | 0.9 | 4.3 | 0.00 | 0.22 | 0.22 | 86 | 1005.0 |
| 20260506165517 | 65 | 0.0 | 4.3 | 0.00 | 0.22 | 0.22 | 89 | 1005.0 | |
| 20260506164517 | 65 | 158 | 0.9 | 5.2 | 0.00 | 0.22 | 0.22 | 89 | 1005.0 |
| 20260506163517 | 65 | 158 | 1.7 | 6.1 | 0.00 | 0.22 | 0.22 | 90 | 1005.1 |
| 20260506162517 | 65 | 158 | 0.9 | 4.3 | 0.00 | 0.22 | 0.22 | 92 | 1005.2 |
| 20260506161517 | 64 | 135 | 1.7 | 5.2 | 0.00 | 0.22 | 0.22 | 96 | 1005.2 |
| 20260506160517 | 63 | 113 | 1.7 | 7.8 | 0.00 | 0.22 | 0.22 | 95 | 1005.1 |
| 20260506155517 | 63 | 158 | 0.9 | 4.3 | 0.00 | 0.22 | 0.22 | 97 | 1005.2 |
| 20260506154516 | 62 | 158 | 0.9 | 6.1 | 0.00 | 0.22 | 0.22 | 99 | 1005.2 |
| 20260506153517 | 62 | 158 | 2.6 | 8.7 | 0.00 | 0.22 | 0.22 | 100 | 1005.1 |
| 20260506152536 | 62 | 158 | 1.7 | 7.8 | 0.01 | 0.22 | 0.22 | 100 | 1004.9 |